Buena Vista, CO

6:07 AM MDT on April 24, 2018 (GMT -0600)
Buena Vista

Weather History for KAEJ - January, 2014

Change the Weather History Date:

Saturday, January 4, 2014

  Actual Average (KLXV) Record (KLXV)
Temperature  
Mean Temperature 18 °F -  
Max Temperature 37 °F 26 °F 44 °F (2012)
Min Temperature 0 °F 8 °F -18 °F (1990)
Degree Days  
Heating Degree Days 46    
Moisture  
Dew Point 12 °F    
Average Humidity 61    
Maximum Humidity 88    
Minimum Humidity 36    
Precipitation  
Precipitation 0.00 in - - ()
Sea Level Pressure  
Sea Level Pressure 29.76 in    
Wind  
Wind Speed 10 mph (WNW)    
Max Wind Speed 25 mph    
Max Gust Speed 32 mph    
Visibility 9 miles    
Events Snow    
Averages and records for this station are not official NWS values.
T = Trace of Precipitation, MM = Missing Value Source: NWS Daily Summary

Daily Weather History Graph

Daily Weather History Graph

Search for Another Location

Airport or City:

Astronomy

Jan. 04, 2014 Rise Set
Actual Time 7:23 AM MST 4:56 PM MST
Civil Twilight 6:53 AM MST 5:25 PM MST
Nautical Twilight 6:20 AM MST 5:59 PM MST
Astronomical Twilight 5:47 AM MST 6:31 PM MST
Moon 9:32 AM MST (1/4) 9:16 PM MST (1/4)
Length of Visible Light 10h 32m
Length of Day
9h 33m
Waxing Crescent, 16% of the Moon is Illuminated
Jan 4
Waxing Crescent
Jan 7
First Quarter
Jan 15
Full
Jan 23
Last Quarter
Jan 30
New

Hourly Weather History & Observations

Time (MST) Temp. Windchill Dew Point Humidity Pressure Visibility Wind Dir Wind Speed Gust Speed Precip Events Conditions
12:15 AM 35.2 °F - 16.3 °F 46% 29.76 in 10.0 mi Calm Calm - N/A   Mostly Cloudy
12:35 AM 35.1 °F 31.0 °F 16.9 °F 48% 29.75 in 10.0 mi North 4.6 mph - N/A   Mostly Cloudy
12:55 AM 34.0 °F 24.2 °F 17.6 °F 51% 29.74 in 10.0 mi West 15.0 mph 25.3 mph N/A   Scattered Clouds
1:15 AM 34.5 °F 22.0 °F 17.2 °F 49% 29.72 in 10.0 mi WSW 25.3 mph 32.2 mph N/A   Clear
1:35 AM 33.4 °F 21.7 °F 17.6 °F 52% 29.73 in 10.0 mi WSW 20.7 mph 31.1 mph N/A   Clear
1:55 AM 33.4 °F 21.7 °F 16.9 °F 51% 29.74 in 10.0 mi WSW 20.7 mph 26.5 mph N/A   Clear
2:15 AM 32.2 °F 21.8 °F 16.5 °F 53% 29.74 in 10.0 mi WSW 15.0 mph - N/A   Clear
2:35 AM 31.5 °F 21.8 °F 15.6 °F 52% 29.73 in 10.0 mi WSW 12.7 mph - N/A   Clear
2:55 AM 27.9 °F 19.1 °F 14.7 °F 58% 29.72 in 10.0 mi WSW 9.2 mph - N/A   Clear
3:15 AM 29.3 °F 20.8 °F 13.5 °F 52% 29.70 in 10.0 mi West 9.2 mph - N/A   Clear
3:35 AM 32.0 °F 27.5 °F 14.2 °F 48% 29.70 in 10.0 mi SW 4.6 mph - N/A   Scattered Clouds
3:55 AM 31.8 °F - 13.5 °F 47% 29.68 in 10.0 mi Calm Calm - N/A   Scattered Clouds
4:15 AM 37.6 °F 31.6 °F 12.6 °F 36% 29.69 in 10.0 mi WSW 8.1 mph 20.7 mph N/A   Mostly Cloudy
4:35 AM 35.6 °F 32.8 °F 14.0 °F 41% 29.67 in 10.0 mi NW 3.5 mph - N/A   Overcast
4:55 AM 34.7 °F 28.8 °F 16.0 °F 46% 29.67 in 10.0 mi NW 6.9 mph - N/A   Overcast
5:15 AM 34.0 °F 24.6 °F 18.1 °F 52% 29.68 in 10.0 mi WNW 13.8 mph 23.0 mph N/A   Overcast
5:35 AM 33.1 °F 23.9 °F 21.2 °F 62% 29.69 in 10.0 mi WNW 12.7 mph 19.6 mph N/A   Overcast
5:55 AM 33.1 °F 25.5 °F 21.0 °F 61% 29.68 in 10.0 mi West 9.2 mph - N/A   Overcast
6:15 AM 33.1 °F - 20.7 °F 60% 29.68 in 10.0 mi Calm Calm - N/A   Overcast
6:35 AM 31.3 °F 22.1 °F 14.0 °F 49% 29.69 in 10.0 mi SE 11.5 mph - N/A   Overcast
6:55 AM 31.5 °F 24.9 °F 18.3 °F 58% 29.69 in 10.0 mi SSW 6.9 mph - N/A   Overcast
7:15 AM 30.2 °F 21.9 °F 14.9 °F 53% 29.69 in 10.0 mi SE 9.2 mph 20.7 mph N/A Snow Light Snow
7:35 AM 29.5 °F 20.4 °F 17.6 °F 61% 29.69 in 10.0 mi ESE 10.4 mph - N/A   Overcast
7:55 AM 28.8 °F 20.9 °F 20.3 °F 71% 29.70 in 10.0 mi SSE 8.1 mph - N/A   Overcast
8:15 AM 28.4 °F 18.5 °F 22.1 °F 77% 29.70 in 5.0 mi SE 11.5 mph - N/A Snow Light Snow
8:35 AM 28.0 °F 18.1 °F 24.6 °F 87% 29.70 in 2.5 mi SE 11.5 mph - N/A Snow Light Snow
8:55 AM 28.2 °F 17.7 °F 24.4 °F 86% 29.70 in 10.0 mi SE 12.7 mph 17.3 mph N/A   Overcast
9:15 AM 28.4 °F 17.5 °F 23.9 °F 83% 29.70 in 7.0 mi SE 13.8 mph 23.0 mph N/A Snow Light Snow
9:35 AM 28.0 °F 15.7 °F 24.8 °F 88% 29.69 in 10.0 mi SE 17.3 mph - N/A   Overcast
9:55 AM 28.2 °F 17.2 °F 23.7 °F 83% 29.69 in 10.0 mi SE 13.8 mph 23.0 mph N/A   Overcast
10:15 AM 29.3 °F 18.6 °F 23.5 °F 79% 29.69 in 10.0 mi SE 13.8 mph - N/A   Overcast
10:35 AM 29.8 °F 19.8 °F 24.4 °F 80% 29.69 in 3.0 mi SE 12.7 mph - N/A Snow Light Snow
10:55 AM 32.0 °F 25.6 °F 23.9 °F 72% 29.66 in 10.0 mi ESE 6.9 mph - N/A   Overcast
11:15 AM 34.7 °F 30.6 °F 21.0 °F 57% 29.65 in 10.0 mi NNW 4.6 mph - N/A   Overcast
11:35 AM 27.3 °F 13.3 °F 19.6 °F 73% 29.64 in 7.0 mi NNW 21.9 mph 27.6 mph N/A Snow Light Snow
11:55 AM 25.7 °F 11.2 °F 21.0 °F 82% 29.65 in 0.8 mi NNW 21.9 mph 26.5 mph N/A Snow Light Snow
12:15 PM 23.4 °F 11.1 °F 20.3 °F 88% 29.68 in 0.2 mi NW 13.8 mph - N/A Snow Snow
12:35 PM 25.9 °F 20.3 °F 19.2 °F 76% 29.65 in 1.5 mi NNW 4.6 mph - N/A Snow Light Snow
12:55 PM 28.4 °F 24.6 °F 17.6 °F 64% 29.64 in 10.0 mi NNW 3.5 mph - N/A   Overcast
1:15 PM 28.6 °F 16.0 °F 18.1 °F 65% 29.66 in 10.0 mi NW 18.4 mph - N/A   Overcast
1:35 PM 25.3 °F 15.3 °F 16.7 °F 70% 29.67 in 10.0 mi NW 10.4 mph 19.6 mph N/A   Mostly Cloudy
1:55 PM 27.7 °F 16.1 °F 17.4 °F 65% 29.67 in 10.0 mi NNW 15.0 mph 19.6 mph N/A   Mostly Cloudy
2:15 PM 27.7 °F 16.1 °F 15.4 °F 60% 29.68 in 10.0 mi NW 15.0 mph 27.6 mph N/A   Scattered Clouds
2:35 PM 26.8 °F 14.9 °F 16.5 °F 65% 29.70 in 7.0 mi NW 15.0 mph 20.7 mph N/A   Mostly Cloudy
2:55 PM 23.5 °F 8.3 °F 13.1 °F 64% 29.72 in 4.0 mi NW 21.9 mph 29.9 mph N/A Snow Light Snow
3:15 PM 21.9 °F 9.8 °F 10.9 °F 63% 29.74 in 5.0 mi NW 12.7 mph 17.3 mph N/A Snow Light Snow
3:35 PM 22.6 °F 9.2 °F 6.1 °F 49% 29.76 in 7.0 mi NW 16.1 mph 25.3 mph N/A Snow Light Snow
3:55 PM 21.9 °F 6.5 °F 2.1 °F 42% 29.77 in 10.0 mi NW 20.7 mph 28.8 mph N/A   Overcast
4:15 PM 20.8 °F 5.9 °F 0.7 °F 42% 29.78 in 10.0 mi NW 18.4 mph 27.6 mph N/A   Overcast
4:35 PM 20.1 °F 5.9 °F -1.5 °F 39% 29.80 in 10.0 mi WNW 16.1 mph 27.6 mph N/A   Overcast
4:55 PM 18.1 °F 6.3 °F -2.7 °F 40% 29.81 in 10.0 mi WNW 10.4 mph - N/A   Scattered Clouds
5:15 PM 15.8 °F 5.1 °F -0.8 °F 48% 29.82 in 10.0 mi NW 8.1 mph - N/A   Clear
5:35 PM 15.8 °F 3.4 °F 1.4 °F 53% 29.83 in 10.0 mi WNW 10.4 mph - N/A   Scattered Clouds
5:55 PM 15.4 °F 5.6 °F 3.0 °F 58% 29.84 in 10.0 mi NW 6.9 mph - N/A   Scattered Clouds
6:15 PM 14.9 °F 4.0 °F 4.3 °F 63% 29.85 in 10.0 mi WNW 8.1 mph - N/A   Mostly Cloudy
6:35 PM 14.0 °F 5.1 °F 3.7 °F 64% 29.86 in 10.0 mi NW 5.8 mph - N/A   Mostly Cloudy
6:55 PM 14.9 °F 0.3 °F 3.0 °F 59% 29.88 in 10.0 mi NNW 13.8 mph 20.7 mph N/A   Scattered Clouds
7:15 PM 14.7 °F -1.1 °F 2.5 °F 58% 29.89 in 10.0 mi WNW 16.1 mph - N/A   Scattered Clouds
7:35 PM 14.5 °F 1.9 °F 3.2 °F 61% 29.89 in 10.0 mi NW 10.4 mph - N/A   Scattered Clouds
7:55 PM 14.7 °F 0.7 °F 3.4 °F 61% 29.90 in 10.0 mi NNW 12.7 mph 17.3 mph N/A   Mostly Cloudy
8:15 PM 14.5 °F 2.7 °F 3.2 °F 61% 29.91 in 10.0 mi NW 9.2 mph - N/A   Overcast
8:35 PM 13.8 °F 2.7 °F 1.2 °F 57% 29.91 in 10.0 mi NW 8.1 mph - N/A   Mostly Cloudy
8:55 PM 10.4 °F -2.4 °F -0.2 °F 62% 29.92 in 10.0 mi West 9.2 mph - N/A   Scattered Clouds
9:15 PM 9.5 °F -1.5 °F -0.6 °F 64% 29.92 in 10.0 mi WNW 6.9 mph - N/A   Mostly Cloudy
9:35 PM 8.4 °F 1.8 °F -1.5 °F 64% 29.93 in 10.0 mi WNW 3.5 mph - N/A   Mostly Cloudy
9:55 PM 7.7 °F -2.4 °F -3.5 °F 60% 29.93 in 10.0 mi West 5.8 mph - N/A   Scattered Clouds
10:15 PM 7.5 °F -5.0 °F -3.8 °F 60% 29.93 in 10.0 mi WNW 8.1 mph - N/A   Scattered Clouds
10:35 PM 7.5 °F -2.6 °F -3.6 °F 60% 29.94 in 10.0 mi West 5.8 mph - N/A   Clear
10:55 PM 6.4 °F - -4.5 °F 61% 29.94 in 10.0 mi Calm Calm - N/A   Clear
11:15 PM -0.0 °F -11.6 °F -8.7 °F 67% 29.94 in 10.0 mi West 5.8 mph - N/A   Scattered Clouds
11:35 PM 2.7 °F -6.8 °F -6.7 °F 65% 29.93 in 10.0 mi WNW 4.6 mph - N/A   Scattered Clouds
11:55 PM 4.6 °F -8.5 °F -6.0 °F 62% 29.93 in 10.0 mi NNW 8.1 mph - N/A   Clear